CW1950 Weather Reports


time (UTC)temp
F
wind
direction
speed
knots
gust
knots
rain 1hr
in
rain 24hr
in
rain mn
in
humidity
%
barometer
mb
20260503210504 69 255 2.6 7.8 0.00 0.00 0.00 58 1010.0
20260503210004 69 269 2.6 7.8 0.00 0.00 0.00 58 1010.0
20260503200503 67 223 1.7 7.8 0.00 0.00 0.00 70 1010.4
20260503200004 67 214 3.5 8.7 0.00 0.00 0.00 70 1010.6
20260503190502 66 235 3.5 6.1 0.00 0.00 0.00 71 1010.5
20260503180503 64 253 2.6 5.2 0.00 0.00 0.00 74 1010.3
20260503180002 64 254 3.5 7.0 0.00 0.00 0.00 74 1010.4
20260503150503 56 289 1.7 2.6 0.00 0.00 0.00 94 1010.0
20260503130503 56 317 0.9 0.9 0.00 0.00 0.00 87 1008.7
20260503110502 57 307 1.7 2.6 0.00 0.00 0.00 87 1008.6
20260503090502 58 314 1.7 2.6 0.00 0.00 0.00 82 1008.6
20260503080503 58 336 1.7 4.3 0.00 0.00 0.00 82 1008.9
20260503070503 59 320 1.7 4.3 0.00 0.00 0.00 78 1008.8
20260503050502 60 17 1.7 5.2 0.00 0.00 0.00 78 1009.1
20260503050003 60 308 2.6 5.2 0.00 0.00 0.00 78 1009.1
20260503040503 61 343 1.7 4.3 0.00 0.00 0.00 77 1008.5
20260503030503 63 5 0.9 2.6 0.00 0.00 0.00 73 1007.7
20260503030003 63 12 1.7 5.2 0.00 0.00 0.00 71 1007.8
20260503020503 66 6 1.7 5.2 0.00 0.00 0.00 66 1007.4
20260503010503 69 71 1.7 5.2 0.00 0.00 0.00 62 1007.6
20260503000503 70 252 1.7 6.1 0.00 0.00 0.00 61 1007.8
20260503000003 70 259 4.3 10.4 0.00 0.00 0.00 61 1007.8
20260502230002 70 219 4.3 8.7 0.00 0.00 0.00 66 1008.5
20260502220502 67 234 3.5 7.0 0.00 0.00 0.00 70 1009.7
20260502220003 67 254 3.5 7.0 0.00 0.00 0.00 70 1009.7